Presure
256 220 240 230 178 194 189 197 102 155 137 203 147 221 173 134 190 193 136 177 187 191 173 187 197 165 189 144 132 210 149 137 165 220 136 186 144 212 145 189 205 188 168
267 239 200 113 199 188 79 179 180 181 188 190 152 200 197 148 202 187 192 191 192 182 197 192 174 195 169 138 210 206 188 152 216 218 212 210 200 215 221 221 197 89 97
264 251 218 221 187 187 185 88 191 143 157 128 171 194 212 215 215 168 193 164 178 191 185 170 198 178 197 211 193 215 142 184 207 207 222 205 193 230 158 134 165 97 87
226 255 230 117 189 200 200 88 195 181 188 96 197 214 142 188 185 201 205 147 192 196 197 201 143 176 190 216 189 164 166 177 199 216 198 140 84 90 100 89 156 151 166
226 217 241 206 210 207 190 198 183 196 185 179 89 169 174 173 202 179 174 164 172 201 166 150 166 160 143 156 144 171 164 199 165 183 93 125 88 96 167 160 165 167 193
261 230 223 219 206 215 196 209 195 183 195 198 169 100 93 194 181 179 188 176 184 175 176 189 186 193 202 175 169 122 92 178 92 85 95 108 148 160 180 175 162 161 184
208 250 229 206 192 191 194 196 204 193 202 170 165 125 181 90 153 177 129 134 173 190 177 189 224 166 127 96 81 82 169 124 83 86 200 150 175 170 173 212 171 159 188
220 215 293 236 211 199 200 203 204 196 187 165 172 196 197 185 172 172 184 140 182 130 151 137 151 156 96 118 96 79 172 93 89 150 164 151 163 160 169 159 180 204 160
193 231 239 369 245 205 206 201 196 200 193 201 164 190 184 197 185 172 182 190 160 195 137 166 195 113 146 83 83 95 175 162 175 142 178 156 171 176 182 197 193 190 163
142 211 240 244 409 231 212 198 196 197 202 161 204 183 186 198 190 184 172 171 122 175 192 149 116 124 82 190 162 176 78 191 166 191 171 173 167 200 188 177 184 206 160
198 199 223 249 343 262 234 213 195 196 199 186 200 165 168 162 192 194 184 184 183 224 203 76 95 187 167 175 177 191 190 163 190 155 193 161 175 179 180 202 191 161 193
216 139 225 242 256 415 243 227 207 201 202 176 202 192 181 184 180 172 178 197 145 189 152 173 144 200 211 157 172 205 200 159 164 153 181 173 194 176 178 190 195 207 165
221 211 233 230 247 388 284 216 223 206 211 205 201 198 195 170 160 178 194 168 182 159 192 162 187 162 166 203 175 188 187 193 189 147 188 165 191 155 176 209 160 199 188
212 221 146 224 235 270 368 250 229 224 211 200 199 189 169 180 169 177 162 220 191 191 171 206 151 186 162 170 194 175 176 173 186 186 186 180 199 186 156 172 192 206 204
219 211 189 190 224 245 326 340 242 214 224 208 193 202 191 193 189 200 210 169 206 183 166 206 189 174 193 171 192 196 189 187 184 181 184 179 188 210 195 211 201 155 166
213 219 209 149 159 229 263 321 248 239 234 192 212 198 211 210 197 190 181 179 207 208 184 181 195 198 199 215 172 203 205 184 172 175 193 191 197 172 168 186 193 196 193
265 222 228 202 206 168 243 275 309 251 207 228 192 193 184 211 191 200 197 195 193 206 197 212 189 200 183 186 189 181 190 180 178 188 193 185 194 175 213 186 195 180 195
239 263 224 207 203 204 174 253 269 235 205 204 203 227 199 195 199 194 197 185 205 190 212 178 198 213 187 194 190 173 201 184 199 187 176 184 184 193 193 179 195 181 196
261 250 258 229 215 211 213 148 255 231 219 207 206 202 197 204 205 197 190 187 204 191 209 183 183 189 184 192 192 184 196 200 192 185 179 190 206 196 173 193 192 198 218
238 239 262 199 214 196 210 222 137 229 217 210 279 236 195 198 195 194 206 203 199 185 194 189 197 194 201 205 194 183 191 194 196 196 178 185 190 182 191 190 208 197 187
250 257 252 219 226 207 205 219 213 223 223 230 213 224 253 220 272 221 203 205 197 193 204 193 193 194 202 187 195 199 205 215 195 192 195 194 184 169 192 203 193 195 192
271 243 229 250 267 203 191 190 215 208 215 168 226 226 225 227 224 234 227 230 211 202 204 210 221 212 216 213 200 206 211 215 214 205 203 198 199 200 199 199 204 203 216
284 260 252 248 265 228 227 203 211 197 195 198 194 136 209 221 226 228 226 222 217 233 237 247 233 144 332 308 312 283 261 259 272 265 215 182 168 202 212 216 215 207 217
278 271 270 232 258 247 222 226 201 204 200 201 199 193 208 210 139 142 141 224 187 220 226 226 203 233 235 245 314 118 278 266 259 240 238 204 251 246 232 237 244 228 230
270 265 260 250 226 253 251 222 230 217 201 176 194 200 199 199 200 202 225 185 199 212 219 215 160 151 161 160 164 303 240 285 267 287 273 271 250 259 269 249 257 263 270
238 257 259 259 253 246 241 257 244 230 223 205 202 197 216 222 206 202 200 197 232 211 193 189 199 203 202 218 186 189 201 213 187 212 202 268 175 262 266 273 274 280 208
Wind_Speed
86 83 84 94 79 73 77 72 37 54 57 71 58 68 72 49 68 67 41 63 59 62 58 57 63 54 45 57 50 36 58 52 51 34 53 45 57 33 59 39 32 36 45
85 79 77 46 78 84 23 80 69 60 69 72 56 61 64 59 73 63 64 65 63 64 66 61 50 56 51 52 41 37 29 50 39 37 36 33 34 34 33 30 34 42 48
84 78 81 88 84 82 86 28 73 56 53 50 57 58 61 64 64 61 64 57 62 63 61 53 56 46 47 44 40 42 27 30 39 31 35 31 28 29 35 36 36 50 42
57 73 81 51 84 89 90 34 83 68 63 35 53 59 52 56 61 65 67 49 64 67 65 63 52 48 49 43 42 45 44 33 33 35 29 33 35 41 44 46 35 43 47
71 60 87 81 91 96 91 91 79 86 70 56 33 54 58 65 58 61 62 57 62 64 56 54 50 51 49 47 47 43 46 35 37 23 38 40 38 51 40 41 44 46 39
59 76 73 87 91 98 94 99 93 82 85 86 68 37 31 56 63 64 64 63 65 63 59 65 59 59 62 55 53 45 32 39 37 35 44 36 48 50 37 45 54 56 41
44 50 82 90 94 96 99 99 101 94 96 64 67 48 64 33 53 66 58 56 61 69 56 64 56 40 55 33 28 29 42 37 35 38 41 60 44 48 46 52 53 62 47
45 55 42 105 112 109 111 107 107 102 91 71 69 83 80 72 70 62 74 60 63 49 55 52 51 44 39 42 37 31 43 39 41 64 53 63 54 58 60 59 53 60 68
57 47 51 30 118 105 112 112 111 108 100 101 70 77 74 81 79 69 79 72 54 79 58 58 70 41 54 34 36 47 45 57 47 64 47 53 56 52 54 61 58 54 53
49 56 39 51 56 122 122 104 112 111 103 65 98 80 80 87 80 82 61 66 50 72 75 57 46 44 38 60 59 57 37 58 58 56 54 54 58 66 64 57 61 66 57
54 58 47 31 30 126 126 127 101 111 104 94 95 77 67 63 86 87 74 82 74 87 78 29 31 69 64 62 53 60 61 64 61 72 66 65 60 59 53 65 75 74 62
57 55 50 36 37 45 125 128 128 112 114 84 96 91 86 85 74 57 66 92 66 67 68 47 61 76 75 70 65 75 71 71 70 74 64 62 74 54 56 66 87 80 69
55 60 47 41 34 39 119 109 127 113 118 104 96 94 96 74 65 70 91 77 64 72 78 68 56 73 70 71 63 62 66 71 70 73 81 68 76 76 57 91 65 79 65
60 55 59 48 39 35 42 129 125 122 114 99 99 92 70 85 69 72 73 95 85 84 76 86 76 73 77 70 67 69 64 64 73 71 83 77 87 69 78 74 84 93 95
66 62 63 60 44 39 29 68 121 105 117 104 95 100 94 96 86 101 100 74 87 78 76 87 83 73 77 71 80 85 88 87 76 71 77 74 78 91 92 94 93 80 86
71 65 68 59 53 44 38 31 105 112 117 90 106 98 105 110 102 91 77 73 93 92 72 70 82 90 90 95 71 91 91 76 71 65 93 89 83 62 67 69 93 101 95
71 72 67 71 66 52 46 40 44 109 96 103 84 89 80 104 95 106 104 95 91 92 92 95 80 91 72 79 86 74 87 74 73 94 100 86 105 67 102 78 109 76 103
66 66 73 73 71 60 51 49 49 85 95 100 96 102 98 95 100 100 105 88 106 93 105 72 97 103 80 96 86 69 101 89 99 89 70 92 82 108 108 70 115 67 94
73 69 72 75 72 70 61 52 55 73 89 100 99 91 94 105 105 102 92 82 113 94 109 80 77 86 72 92 93 85 108 108 105 95 78 110 112 118 67 109 102 114 118
68 70 71 77 78 76 73 69 51 61 84 95 70 98 95 101 97 95 116 115 110 75 101 91 111 106 115 113 98 80 102 109 115 114 75 96 107 81 106 98 128 115 68
71 70 69 76 81 83 79 77 77 73 76 74 85 87 69 93 67 106 110 112 105 96 114 105 106 108 115 84 105 113 123 126 116 115 127 121 95 60 112 131 104 115 98
75 74 76 74 83 85 80 78 82 79 80 60 78 81 87 84 86 76 89 85 96 114 113 117 118 122 122 123 115 126 131 136 130 125 121 119 128 133 129 119 131 131 137
74 76 77 79 81 89 90 89 87 82 79 78 77 51 83 85 81 82 91 108 118 90 83 80 100 60 95 99 96 109 116 126 108 110 137 104 84 127 142 150 148 144 145
75 78 78 81 81 91 89 93 91 91 89 88 87 83 88 87 54 53 54 87 68 79 78 80 71 70 63 62 103 51 112 118 126 125 126 102 122 127 135 138 135 139 140
75 79 79 80 83 85 92 93 95 97 94 81 88 92 90 89 88 85 86 73 80 82 82 78 63 59 61 69 70 82 78 99 103 113 118 113 125 123 115 129 130 127 126
73 77 79 80 83 86 89 90 99 98 99 101 98 93 98 99 95 91 87 82 85 85 79 79 80 79 80 75 80 79 76 71 66 70 83 101 77 109 109 122 116 119 89
Wind_Direction
195 202 194 201 216 207 214 214 232 226 238 229 232 232 235 234 234 237 240 244 249 252 257 260 264 258 271 264 261 274 264 271 274 268 275 275 281 282 287 281 287 289 291
196 202 205 222 207 214 232 232 227 230 233 229 236 234 230 239 234 235 240 243 245 251 253 255 258 264 261 261 270 273 265 272 277 272 278 280 282 285 287 285 287 299 296
204 209 203 202 218 222 224 232 225 235 235 234 230 229 227 230 232 235 234 241 241 249 253 255 259 262 265 263 261 266 263 277 274 290 279 282 288 292 290 289 286 295 305
222 206 209 230 221 217 217 233 223 226 228 247 229 227 235 229 236 230 234 242 243 243 249 253 251 263 261 260 256 261 264 275 286 283 278 275 288 291 291 299 283 284 281
218 219 218 222 221 218 226 224 232 224 238 240 248 233 240 243 231 243 246 249 250 240 255 252 259 254 250 256 257 257 262 277 260 267 282 277 294 287 273 274 275 277 302
213 219 219 214 220 214 229 218 230 235 234 240 239 240 253 244 244 246 247 248 246 254 258 253 258 263 264 261 261 261 271 263 276 289 282 280 273 272 281 279 275 276 296
232 221 214 214 225 231 233 232 229 234 233 226 225 236 246 245 248 245 238 238 251 247 259 256 252 254 251 261 268 274 256 269 285 285 288 269 276 282 278 300 273 278 294
224 224 233 216 215 224 229 233 230 233 235 233 233 243 245 242 241 245 249 239 249 251 244 246 249 254 263 265 261 282 255 278 282 262 262 267 269 265 281 274 279 290 278
241 230 229 280 215 220 223 228 233 233 236 238 233 242 241 244 241 245 247 247 244 250 244 251 254 257 250 267 272 273 259 268 261 268 275 280 274 286 290 298 298 300 294
242 236 239 234 231 213 219 226 227 234 234 238 238 238 241 244 243 244 242 246 250 248 257 252 254 259 267 261 260 259 287 275 252 280 263 268 288 302 292 285 286 301 292
242 236 239 255 287 213 214 221 224 229 232 236 237 233 231 230 243 247 247 249 251 247 251 267 270 264 262 262 262 269 278 247 283 259 288 260 287 275 273 293 299 274 294
236 243 248 251 254 233 212 215 222 225 229 234 234 234 238 240 238 232 245 252 250 250 245 250 254 257 254 251 259 267 270 256 259 261 281 268 295 269 268 301 304 296 294
238 237 248 247 260 242 216 216 218 221 227 229 230 232 237 234 240 240 249 252 242 240 254 242 263 249 252 256 258 278 283 285 285 266 286 257 291 269 272 295 288 296 296
231 234 240 244 250 265 238 211 216 221 225 224 228 228 233 235 234 242 234 244 242 248 253 255 250 258 250 252 268 259 267 267 284 277 286 287 290 293 279 281 300 301 302
232 229 236 226 239 252 248 223 215 220 222 223 224 230 232 236 241 246 244 235 249 242 241 257 255 255 272 256 277 277 271 275 285 280 282 280 291 290 296 297 296 277 287
234 227 232 242 240 239 243 238 215 218 221 224 225 227 233 236 238 244 243 242 248 252 258 255 257 267 271 266 258 277 274 270 266 268 289 291 284 263 265 293 300 302 300
233 226 225 232 233 236 238 233 226 219 221 224 231 231 238 234 238 240 247 250 251 256 256 258 257 261 265 271 269 273 272 277 276 286 288 290 292 271 288 282 300 279 299
226 228 224 226 231 228 233 229 226 221 223 223 229 232 232 236 236 242 245 243 249 254 254 252 264 262 268 271 272 262 275 280 278 281 277 284 285 291 291 284 294 283 286
228 227 225 219 221 227 225 235 223 224 227 228 231 236 237 235 237 240 247 249 247 256 253 263 266 270 265 269 274 277 278 276 278 282 281 287 283 287 274 290 289 294 289
227 224 224 225 220 232 227 223 236 224 229 232 227 232 239 241 245 246 241 244 248 256 258 261 263 267 269 270 275 271 277 278 279 279 277 281 283 282 287 286 285 290 291
224 227 222 229 218 227 230 223 228 224 225 227 234 233 230 239 236 241 244 246 253 258 254 261 264 266 266 272 275 273 272 271 273 274 273 275 279 275 283 285 288 289 292
229 222 222 224 222 227 236 235 226 231 230 229 228 231 235 237 239 237 240 244 250 253 254 256 255 259 262 262 270 269 270 268 269 267 271 272 272 275 278 282 283 284 284
228 226 225 224 223 221 221 231 227 236 238 238 240 234 236 235 234 235 241 246 249 248 245 248 254 259 240 242 240 242 254 257 256 255 265 269 273 273 274 276 278 283 281
228 228 227 223 224 222 223 224 233 231 235 236 239 242 240 241 234 239 239 242 244 246 245 247 255 250 254 257 247 258 244 250 254 260 262 267 262 263 269 271 272 276 279
227 228 228 225 225 225 226 226 228 228 236 241 238 239 242 245 247 248 239 253 255 251 250 252 252 255 256 263 267 246 257 243 249 249 254 252 264 265 261 270 270 270 274
226 228 230 229 228 226 227 230 229 231 230 235 239 244 238 238 245 248 251 252 247 255 256 257 260 260 262 260 265 265 267 265 270 266 267 256 262 260 262 264 265 268 281